OpenBCM V1.13 (Linux)

Packet Radio Mailbox

DB0FHN

[JN59NK Nuernberg]

 Login: GUEST





  
I0OJJ  > KEPS     18.03.25 03:03l 328 Lines 15599 Bytes #999 (0) @ AMSAT
BID : ORB25077.1
Read: DJ6UX GUEST
Subj: 2Line Orbital Elements 25077.AMSAT
Path: DB0FHN<DB0LHR<OK1TOR<OE2XZR<OE6XPE<DB0ERF<IZ3LSV<I0OJJ
Sent: 250318/0025z @:I0OJJ.ITA.EU [Rome] obcm1.08-6-g5b69
From: I0OJJ @ I0OJJ.ITA.EU (Gustavo)
To:   KEPS @ AMSAT
X-Info: This message was generated automatically


QST de W1STR

AMSAT Orbital Elements for Amateur Satellites in TLE Format
From Orbital Analysis Office
New England Sci-Tech STEM Education Center
Natick, MA March 18, 2025
To all radio amateurs


These element sets describe the orbits of various satellites 
in use by the amateur radio community. For details see:
www.amsat.org/keplerian-elements-formats/

A daily update of element sets is available at:
www.amsat.org/tle/daily-bulletin.txt
or without bulletin text:
www.amsat.org/tle/dailytle.txt


AO-07
1 07530U 74089B   25076.63153308 -.00000049  00000-0 -14602-4 0  9994
2 07530 101.9954  79.9970 0011878 282.7173 199.0475 12.53687175303301
UO-11
1 14781U 84021B   25076.88108681  .00004145  00000-0  44695-3 0  9991
2 14781  97.7458  44.9746 0006175 249.6493 110.4061 14.88927784210186
AO-27
1 22825U 93061C   25076.43959256  .00000377  00000-0  16138-3 0  9990
2 22825  98.7472 137.5388 0008383   7.3959 352.7346 14.30750622641683
FO-29
1 24278U 96046B   25076.61323142  .00000047  00000-0  83960-4 0  9991
2 24278  98.5844 341.5272 0349592 199.9535 158.7645 13.53240513411414
NOAA-15
1 25338U 98030A   25076.80834357  .00000485  00000-0  21743-3 0  9996
2 25338  98.5449 103.9220 0009286 240.9403 119.0848 14.26911665396455
GO-32
1 25397U 98043D   25076.53312022  .00000326  00000-0  16143-3 0  9997
2 25397  98.9632  53.9338 0002359  89.5138 270.6310 14.24273628386329
ISS
1 25544U 98067A   25076.89181171 -.00124587  00000-0 -22480-2 0  9993
2 25544  51.6544  39.2330 0004086  45.4539 343.1317 15.49509203501001
NO-44
1 26931U 01043C   25076.46738097  .00000617  00000-0  26223-3 0  9995
2 26931  67.0529 345.3052 0005660 267.1795  92.8659 14.31657826225065
SO-50
1 27607U 02058C   25076.44194977  .00003729  00000-0  48768-3 0  9999
2 27607  64.5526 100.1789 0046651 354.5449   5.5141 14.81147476196762
CO-55
1 27844U 03031E   25076.57033365  .00001015  00000-0  46214-3 0  9991
2 27844  98.6795  85.9207 0010833  73.8545 286.3825 14.23876256126680
CO-57
1 27848U 03031J   25076.47987407  .00000857  00000-0  39808-3 0  9993
2 27848  98.6822  85.8997 0010779  89.0034 271.2380 14.23228145126408
RS-22
1 27939U 03042A   25076.88270527  .00003917  00000-0  63245-3 0  9991
2 27939  98.3192 244.3627 0010496 274.9272 222.9004 14.71953346148516
NOAA-18
1 28654U 05018A   25076.81657831  .00000508  00000-0  29302-3 0  9990
2 28654  98.8460 157.2273 0014100  11.7410 348.4089 14.13544751 21913
CO-58
1 28895U 05043F   25076.36420948  .00005592  00000-0  92984-3 0  9996
2 28895  98.2353 219.7530 0014534 210.2938 149.7428 14.70436052 34568
CO-65
1 32785U 08021C   25076.43466474  .00013246  00000-0  98858-3 0  9991
2 32785  97.7790  47.0969 0012526 126.3107 233.9276 15.02910019916430
AAUSAT2
1 32788U 08021F   25076.49348330  .00195179  00000-0  27074-2 0  9997
2 32788  97.6063  69.9715 0004057 112.2578 247.9107 15.56364496920178
CO-66
1 32791U 08021J   25076.42582506  .00028183  00000-0  14921-2 0  9996
2 32791  97.7226  54.7980 0007091  95.6089 264.5952 15.15365960917735
RS-30
1 32953U 08025A   25076.78403484  .00000018  00000-0  60165-4 0  9996
2 32953  82.4978 279.3072 0018834 227.0830 132.8670 12.43160178763127
NOAA-19
1 33591U 09005A   25076.80931222  .00000451  00000-0  26426-3 0  9995
2 33591  99.0066 141.0148 0012997 237.6169 122.3746 14.13311591830278
SRMSAT
1 37841U 11058D   25076.82459155  .00000710  00000-0  24232-3 0  9991
2 37841  19.9727 301.3782 0011724 223.4387 222.7755 14.11386063693481
ZACUBE-1
1 39417U 13066B   25076.85156865  .00015058  00000-0  13438-2 0  9994
2 39417  97.7718  34.4241 0044578 334.4732  25.4287 14.95281908612393
Delfi-N3xt
1 39428U 13066N   25076.75156546  .00017165  00000-0  18164-2 0  9993
2 39428  97.8365 355.4386 0085733 276.7978  82.3488 14.86524595606792
GOMX-1
1 39430U 13066Q   25076.75177456  .00004749  00000-0  74503-3 0  9993
2 39430  97.6951 300.5304 0135086 100.5470 261.0986 14.67081553603116
LO-74
1 39440U 13066AA  25076.56917218  .00010874  00000-0  11250-2 0  9996
2 39440  97.8426  21.8135 0065528  96.8102 264.0577 14.88650223608936
AO-73
1 39444U 13066AE  25076.44644838  .00019898  00000-0  15638-2 0  9991
2 39444  97.7614  38.2385 0039874 313.0010  46.7873 15.00274411610960
DTUSAT-2
1 40030U 14033W   25076.39089490  .00018706  00000-0  12747-2 0  9995
2 40030  98.0474  44.2863 0009468 358.4395   1.6800 15.06278031583714
EO-80
1 40032U 14033Y   25076.48186770  .00017145  00000-0  11663-2 0  9998
2 40032  98.0365  44.1525 0006482 292.2927  67.7611 15.06381519583706
LILACSAT-2
1 40908U 15049K   25076.79469877  .00024433  00000-0  69533-3 0  9992
2 40908  97.5142  95.2359 0012053 100.5258 259.7344 15.36048888525351
IO-86
1 40931U 15052B   25038.81889873  .00001817  00000-0  15548-3 0  9993
2 40931   6.0001 108.1159 0012838 187.7041 172.2889 14.78568669506492
Horyu-4
1 41340U 16012D   25076.83745405  .00045166  00000-0  14249-2 0  9992
2 41340  30.9985 333.1880 0008438 279.6754  80.2937 15.31607366499916
Lapan A3
1 41603U 16040E   25076.82291296  .00008230  00000-0  29493-3 0  9997
2 41603  97.1400  84.7540 0010469 198.3316 161.7548 15.28929649484986
CAS-2T
1 41847U 16066G   25076.45474840  .00003483  00000-0  50107-3 0  9993
2 41847  98.4256 151.6420 0348424  73.0383 290.8684 14.43154478438887
CAS-4B
1 42759U 17034B   25076.53196607  .00073044  00000-0  12081-2 0  9991
2 42759  43.0095  98.5879 0016087  60.9507 299.2963 15.51154708429490
CAS-4A
1 42761U 17034D   25076.74403640  .00071218  00000-0  11498-2 0  9997
2 42761  43.0131  95.1587 0017404  68.5452 291.7263 15.51812752429546
TechnoSat
1 42829U 17042E   25076.73415721  .00008872  00000-0  70211-3 0  9998
2 42829  97.3906 249.4718 0012639 201.9994 158.0690 15.00767749418144
AO-91
1 43017U 17073E   25076.62369666  .00016741  00000-0  88048-3 0  9997
2 43017  97.5401 309.5643 0181355  92.2352 269.9651 15.02555584396599
S-Net D
1 43186U 18014G   25076.47661793  .00012908  00000-0  78754-3 0  9993
2 43186  97.5699 340.2813 0010195 144.6919 215.4988 15.10417579389670
S-Net B
1 43187U 18014H   25076.61348734  .00012668  00000-0  77314-3 0  9991
2 43187  97.5700 340.3841 0011062 140.5559 219.6478 15.10403168389696
S-Net A
1 43188U 18014J   25076.80852619  .00014227  00000-0  86695-3 0  9990
2 43188  97.5712 340.7165 0010942 140.3714 219.8317 15.10432805389728
S-Net C
1 43189U 18014K   25076.61570289  .00012627  00000-0  77038-3 0  9993
2 43189  97.5724 340.5256 0012706 135.8004 224.4243 15.10398297388244
Ten-Koh
1 43677U 18084G   25076.42740818  .00007741  00000-0  62949-3 0  9994
2 43677  98.0964 245.3258 0010408 184.9048 175.2074 14.99828048347622
PO-101
1 43678U 18084H   25076.76247847  .00007548  00000-0  64991-3 0  9990
2 43678  98.0981 249.7417 0008094 194.8093 165.2892 14.97636590347832
QO-100
1 43700U 18090A   25075.02757806  .00000144  00000-0  00000-0 0  9995
2 43700   0.0141 134.5582 0001590 255.3614 179.6674  1.00275184 23082
MinXSS-2
1 43758U 18099A   25076.15961342  .00031681  00000-0  13922-2 0  9993
2 43758  97.5115 142.0938 0013853  96.0624 264.2191 15.21758198344116
AO-95
1 43770U 18099N   25076.70482866  .00020712  00000-0  11143-2 0  9993
2 43770  97.5027 135.7948 0012449 140.6929 219.5209 15.14814051343841
RANGE-A
1 43773U 18099R   25076.56132231  .00011877  00000-0  77810-3 0  9994
2 43773  97.4591 127.4107 0012981 118.9486 241.3046 15.07796615343558
MOVE-II
1 43780U 18099Y   25076.62132097  .00120930  00000-0  22968-2 0  9993
2 43780  97.4754 147.7494 0003341 121.5545 238.6032 15.47830130344704
SNUSat 2
1 43782U 18099AA  25076.59171200  .00016716  00000-0  95827-3 0  9991
2 43782  97.4706 133.0954 0013945  87.2673 273.0154 15.12572846343798
SnugLite
1 43784U 18099AC  25076.62030041  .00019442  00000-0  10391-2 0  9995
2 43784  97.4526 132.5361 0005105  95.5106 264.6708 15.15117225343912
ITASat 1
1 43786U 18099AE  25076.70989969  .00015274  00000-0  90940-3 0  9996
2 43786  97.4676 132.9517 0016112 134.0110 226.2451 15.11196817343785
EAGLET 1
1 43790U 18099AJ  25076.57796787  .00010962  00000-0  71694-3 0  9994
2 43790  97.4870 133.0273 0013627 116.7378 243.5247 15.07872505343402
ESEO
1 43792U 18099AL  25076.61684105  .00005221  00000-0  40129-3 0  9992
2 43792  97.4590 127.4100 0012175  88.8372 271.4248 15.02079795343214
CSIM
1 43793U 18099AM  25076.79579319  .00136934  00000-0  25443-2 0  9999
2 43793  97.4935 149.9992 0004623  77.1127 283.0640 15.48397535344574
JO-97
1 43803U 18099AX  25076.69423920  .00022963  00000-0  11330-2 0  9992
2 43803  97.4773 136.6277 0009127  84.3321 275.8953 15.17873656344031
Suomi 100
1 43804U 18099AY  25076.65065792  .00021502  00000-0  11207-2 0  9999
2 43804  97.4837 136.0933 0014099  83.5040 276.7798 15.15911187343978
ISAT
1 43879U 18111D   25076.53428110  .00038238  00000-0  15235-2 0  9999
2 43879  97.6010 349.3176 0011924 123.9584 236.2788 15.25053934340862
UWE-4
1 43880U 18111E   25076.18620224  .00029847  00000-0  13016-2 0  9993
2 43880  97.5950 347.9747 0014524 137.7576 222.4781 15.22024745340772
Sparrow
1 43881U 18111F   25076.70870955  .00040011  00000-0  15480-2 0  9993
2 43881  97.6138 352.0722 0008380 153.7585 206.4079 15.26058244338979
Prox-1
1 44339U 19036A   25076.61084671  .00022941  00000-0  31225-2 0  9998
2 44339  23.9974 252.4089 0006592 190.3088 169.7274 14.77249385305576
SONATE
1 44400U 19038Q   25076.54158776  .00117359  00000-0  12014-2 0  9992
2 44400  97.7062  94.1030 0009222 178.2536 181.8756 15.64566388316322
Taurus 1
1 44530U 19059C   25076.79098397  .00020165  00000-0  38595-2 0  9998
2 44530  98.5954 212.3617 0009486 285.9434  74.0722 14.63825998291674
